Location: Heisler
(52.6701°N, 112.2239°W)
Time: 16:49:21
(UTC+00:00)

N. Korean satellite - Pass Details

Date: 10 December 2021
Orbit: 446 x 492 km, 97.3° (Epoch: 16 January)

Event Time Altitude Azimuth Distance (km) Brightness Sun altitude
Rises 23:57:00 0° 174° (S) 2,507 10.5 -6.2°
Reaches altitude 10° 23:59:05 10° 178° (S) 1,626 9.6 -6.5°
Maximum altitude 00:02:31 58° 259° (W) 548 7.2 -6.9°
Drops below altitude 10° 00:05:57 10° 340° (NNW) 1,614 9.1 -7.4°
Sets 00:08:00 0° 344° (NNW) 2,487 10.0 -7.7°
